(48467) = 1991 SB1 = 1999 WS20

Discovered at Siding Spring on 1991-09-30 by R. H. McNaught.

Orbit

Orbit type: Main Belt

Note: WebGL enabled browser required.

epoch2023-09-13.0
epoch JD2460200.5
perihelion date2020-06-07.19917
perihelion JD2459007.69917
argument of perihelion (°)267.19684
ascending node (°)89.46846
inclination (°)7.32942
eccentricity0.1363411
perihelion distance (AU)2.0219312
Tisserand w.r.t. Jupiter3.5
ΔV w.r.t. Earth (km/sec)9.1
semimajor axis (AU)2.3411224
mean anomaly (°)328.19774
mean daily motion (°/day)0.27514880
aphelion distance (AU)2.660
period (years)3.58
P-vector [x]0.99014596
P-vector [y]-0.00261396
P-vector [z]-0.14001478
Q-vector [x]0.05776908
Q-vector [y]0.91841368
Q-vector [z]0.39138095
absolute magnitude15.42
phase slope0.15
uncertainty0
referenceMPEC 2024-A48
observations used1427
oppositions20
arc length (days)11744
first opposition used1991
last opposition used2023
residual rms (arc-secs)0.66
perturbers coarse indicatorM-v
perturbers precise indicator003Ek
first observation date used1991-09-05.0
last observation date used2023-10-31.0
computer nameMPCLINUX
JD of orbit computation2456760.783709
perihelion JD uncertainty (days)8.4218E-05
argument of perihelion uncertainty (°)4.7190E-05
ascending node uncertainty (°)4.2406E-05
inclination uncertainty (°)5.4917E-06
eccentricity uncertainty 5.0537E-08
perihelion distance uncertainty (AU)1.1767E-07
Minimum Orbit Intersection Distances (in AU)
for orbit epoch: 2460200.5, reference: E2024-A48
Mercury1.64377
Venus1.29783
Earth1.0328
Mars0.65033
Jupiter2.77378
Saturn6.62876
Uranus15.8105
Neptune27.7157

Observations

1436 total observations over interval: 1991 09 05.59238 – 2023 10 31.820814
These data are available for download (format description).

Date (UT) J2000 RA J2000 Dec Magn Location Ref
1991 09 05.59238 23 37 08.12 -17 45 08.9   413 – Siding Spring Observatory MPC 19160
1991 09 05.63405 23 37 05.94 -17 45 27.2   413 – Siding Spring Observatory MPC 19160
1991 09 14.31493 23 29 36.69 -18 43 16.7 18.2   675 – Palomar Mountain MPC 29405
1991 09 14.36765 23 29 33.73 -18 43 35.2   675 – Palomar Mountain MPC 29405
1991 09 30.53319 23 16 28.89 -19 37 29.1 18 V 413 – Siding Spring Observatory MPC 18873
1991 10 01.45787 23 15 51.92 -19 38 08.4   413 – Siding Spring Observatory MPC 18874
1991 10 02.55556 23 15 09.10 -19 38 35.6   413 – Siding Spring Observatory MPC 19160
1991 10 05.52552 23 13 23.46 -19 37 52.0   413 – Siding Spring Observatory MPC 19160
1991 10 12.60932 23 10 11.66 -19 25 08.9   413 – Siding Spring Observatory MPC 19160
1991 11 02.48611 23 10 07.22 -17 30 25.8   413 – Siding Spring Observatory MPC 19401
1998 08 04.22357 21 10 47.055 -26 17 32.61 16.52 J I02 – Cerro Tololo Observatory, La Serena--2MASS MPS 81221
1999 11 16.44114 08 52 27.24 +20 15 29.1 20.0   704 – Lincoln Laboratory ETS, New Mexico MPS 16663
1999 11 16.45535 08 52 27.70 +20 15 28.3 19.8   704 – Lincoln Laboratory ETS, New Mexico MPS 16663
1999 11 16.46958 08 52 28.19 +20 15 29.7 20.0   704 – Lincoln Laboratory ETS, New Mexico MPS 16663
1999 11 16.48396 08 52 28.77 +20 15 31.1 19.7   704 – Lincoln Laboratory ETS, New Mexico MPS 16663
2000 01 30.24389 08 22 15.92 +26 32 48.8 18.7   704 – Lincoln Laboratory ETS, New Mexico MPS 16663
2000 01 30.25880 08 22 14.90 +26 32 53.2 18.9   704 – Lincoln Laboratory ETS, New Mexico MPS 16663
2000 01 30.27369 08 22 13.93 +26 32 57.7 19.7   704 – Lincoln Laboratory ETS, New Mexico MPS 16663
2000 02 11.23754 08 10 05.44 +27 26 01.3 18.5   704 – Lincoln Laboratory ETS, New Mexico MPS 16663
2000 02 11.25249 08 10 04.51 +27 26 03.9 18.8   704 – Lincoln Laboratory ETS, New Mexico MPS 16663
2000 02 11.26711 08 10 03.73 +27 26 07.6 18.7   704 – Lincoln Laboratory ETS, New Mexico MPS 16663
2000 02 11.28164 08 10 02.93 +27 26 10.1 18.8   704 – Lincoln Laboratory ETS, New Mexico MPS 16663
2001 05 18.27291 14 55 39.88 -08 30 12.7 18.1   704 – Lincoln Laboratory ETS, New Mexico MPS 30694
2001 05 18.28467 14 55 39.15 -08 30 11.2 18.2   704 – Lincoln Laboratory ETS, New Mexico MPS 30694
2001 05 18.29643 14 55 38.41 -08 30 10.4 18.4   704 – Lincoln Laboratory ETS, New Mexico MPS 30694
2001 05 18.30820 14 55 37.71 -08 30 09.6 19.3   704 – Lincoln Laboratory ETS, New Mexico MPS 30694
2001 05 22.22198 14 51 49.64 -08 25 56.2 18.5   704 – Lincoln Laboratory ETS, New Mexico MPS 30694
2001 05 22.24238 14 51 48.40 -08 25 55.0 18.7   704 – Lincoln Laboratory ETS, New Mexico MPS 30694
2001 05 22.25260 14 51 47.83 -08 25 55.2 18.8   704 – Lincoln Laboratory ETS, New Mexico MPS 30694
2001 05 27.37947 14 47 08.79 -08 23 17.1 19.9   608 – Haleakala-AMOS MPS 31169
2001 05 27.38824 14 47 08.31 -08 23 17.3 20.2   608 – Haleakala-AMOS MPS 31169
2001 05 27.39947 14 47 07.67 -08 23 16.8 20.3   608 – Haleakala-AMOS MPS 31169
2001 06 12.33156 14 36 13.64 -08 38 27.7 19.9   608 – Haleakala-AMOS MPS 31539
2001 06 12.34258 14 36 13.32 -08 38 28.6 19.9   608 – Haleakala-AMOS MPS 31539
2001 06 12.35322 14 36 13.00 -08 38 29.8 19.9   608 – Haleakala-AMOS MPS 31539
2002 10 01.33060 03 04 13.55 +05 32 38.1 17.9   704 – Lincoln Laboratory ETS, New Mexico MPS 62473
2002 10 01.34612 03 04 13.17 +05 32 35.0 18.9   704 – Lincoln Laboratory ETS, New Mexico MPS 62473
2002 10 01.36085 03 04 12.82 +05 32 32.1 18.9   704 – Lincoln Laboratory ETS, New Mexico MPS 62473
2002 10 01.39112 03 04 12.07 +05 32 27.6 18.0   704 – Lincoln Laboratory ETS, New Mexico MPS 62473
2002 10 04.32229 03 02 59.99 +05 23 47.1 17.9   704 – Lincoln Laboratory ETS, New Mexico MPS 62473
2002 10 04.33753 03 02 59.55 +05 23 44.0 18.7   704 – Lincoln Laboratory ETS, New Mexico MPS 62473
2002 10 04.35254 03 02 59.05 +05 23 42.1 19.1   704 – Lincoln Laboratory ETS, New Mexico MPS 62473
2002 10 04.36786 03 02 58.59 +05 23 39.0 18.3   704 – Lincoln Laboratory ETS, New Mexico MPS 62473
2002 10 04.38318 03 02 58.09 +05 23 36.1 18.2   704 – Lincoln Laboratory ETS, New Mexico MPS 62473
2002 10 06.52712 03 01 53.75 +05 17 04.6 18.9   608 – Haleakala-AMOS MPS 81794
2002 10 06.53753 03 01 53.41 +05 17 03.2 18.5   608 – Haleakala-AMOS MPS 81794
2002 10 06.54792 03 01 53.02 +05 17 01.1 18.7   608 – Haleakala-AMOS MPS 81794
2002 10 26.60348 02 45 39.44 +04 20 55.6 18.0   608 – Haleakala-AMOS MPS 65267
2002 10 26.61395 02 45 38.78 +04 20 54.2 18.0   608 – Haleakala-AMOS MPS 65267
2002 10 26.62562 02 45 38.07 +04 20 52.5 18.2   608 – Haleakala-AMOS MPS 65267
2002 10 31.25748 02 40 53.98 +04 12 26.3 17.8   704 – Lincoln Laboratory ETS, New Mexico MPS 65267
2002 10 31.27456 02 40 52.87 +04 12 24.8 17.8   704 – Lincoln Laboratory ETS, New Mexico MPS 65267
2002 10 31.29168 02 40 51.71 +04 12 25.0 19.0   704 – Lincoln Laboratory ETS, New Mexico MPS 65267
2002 10 31.30876 02 40 50.62 +04 12 22.3 18.6   704 – Lincoln Laboratory ETS, New Mexico MPS 65267
2002 10 31.32590 02 40 49.53 +04 12 20.8 18.5   704 – Lincoln Laboratory ETS, New Mexico MPS 65267
2002 11 01.58621 02 39 30.62 +04 10 34.6 18.1   608 – Haleakala-AMOS MPS 65267
2002 11 01.59702 02 39 29.93 +04 10 34.0 18.1   608 – Haleakala-AMOS MPS 65267
2002 11 01.60800 02 39 29.21 +04 10 32.7 18.1   608 – Haleakala-AMOS MPS 65267
2002 11 05.22276 02 35 44.62 +04 06 42.5 18.2   704 – Lincoln Laboratory ETS, New Mexico MPS 65267
2002 11 05.24021 02 35 43.43 +04 06 41.7 17.9   704 – Lincoln Laboratory ETS, New Mexico MPS 65267
2002 11 05.25681 02 35 42.36 +04 06 41.0 17.7   704 – Lincoln Laboratory ETS, New Mexico MPS 65267
2002 11 05.27332 02 35 41.28 +04 06 40.1 17.9   704 – Lincoln Laboratory ETS, New Mexico MPS 65267
2002 11 05.28999 02 35 40.19 +04 06 39.4 18.3   704 – Lincoln Laboratory ETS, New Mexico MPS 65267
2002 11 11.24022 02 29 40.73 +04 05 14.2 17.5   704 – Lincoln Laboratory ETS, New Mexico MPS 65267
2002 11 11.25741 02 29 39.69 +04 05 14.8 17.6   704 – Lincoln Laboratory ETS, New Mexico MPS 65267
2002 11 11.27469 02 29 38.65 +04 05 14.6 17.7   704 – Lincoln Laboratory ETS, New Mexico MPS 65267
2002 11 11.29197 02 29 37.59 +04 05 15.4 18.0   704 – Lincoln Laboratory ETS, New Mexico MPS 65267
2002 11 11.30929 02 29 36.54 +04 05 15.5 18.5   704 – Lincoln Laboratory ETS, New Mexico MPS 65267
2002 11 12.22785 02 28 43.54 +04 05 37.3 17.4   704 – Lincoln Laboratory ETS, New Mexico MPS 65267
2002 11 12.24432 02 28 42.57 +04 05 37.7 17.5   704 – Lincoln Laboratory ETS, New Mexico MPS 65267
2002 11 12.26090 02 28 41.58 +04 05 38.5 17.5   704 – Lincoln Laboratory ETS, New Mexico MPS 65267
2002 11 12.27766 02 28 40.56 +04 05 38.6 17.8   704 – Lincoln Laboratory ETS, New Mexico MPS 65267
2002 11 12.29427 02 28 39.57 +04 05 39.2 18.2   704 – Lincoln Laboratory ETS, New Mexico MPS 65267
2002 11 30.16293 02 15 09.03 +04 44 44.6 18.1   704 – Lincoln Laboratory ETS, New Mexico MPS 69260
2002 11 30.17773 02 15 08.55 +04 44 47.8 19.1   704 – Lincoln Laboratory ETS, New Mexico MPS 69260
2002 11 30.19273 02 15 07.96 +04 44 50.8 19.8   704 – Lincoln Laboratory ETS, New Mexico MPS 69260
2002 11 30.20745 02 15 07.55 +04 44 54.9 18.4   704 – Lincoln Laboratory ETS, New Mexico MPS 69260
2002 12 07.13828 02 12 22.46 +05 15 50.4 18.5 V 333 – Desert Eagle Observatory MPS 69260
2002 12 07.15333 02 12 22.17 +05 15 54.4 18.7   704 – Lincoln Laboratory ETS, New Mexico MPS 69260
2002 12 07.15392 02 12 22.17 +05 15 54.9 19.0 V 333 – Desert Eagle Observatory MPS 69260
2002 12 07.16866 02 12 21.86 +05 15 59.7 19.2   704 – Lincoln Laboratory ETS, New Mexico MPS 69260
2002 12 07.17083 02 12 21.85 +05 16 00.0 19.3 V 333 – Desert Eagle Observatory MPS 69260
2002 12 07.18380 02 12 21.55 +05 16 03.5 19.0   704 – Lincoln Laboratory ETS, New Mexico MPS 69260
2002 12 07.21443 02 12 20.94 +05 16 12.8 18.5   704 – Lincoln Laboratory ETS, New Mexico MPS 69260
2002 12 08.28217 02 12 04.03 +05 21 42.3 18.9   644 – Palomar Mountain/NEAT MPS 69260
2002 12 08.30381 02 12 03.65 +05 21 48.9 18.2   644 – Palomar Mountain/NEAT MPS 69260
2002 12 08.32519 02 12 03.30 +05 21 55.7 17.9   644 – Palomar Mountain/NEAT MPS 69260
